When you browse on this site, cookies collect data to enhance your experience and personalize the content and advertising you see.
Visit our Privacy Policy to learn more. By continuing to use the site, you agree to this use of cookies and data.
  • In Portugal
  • List of Countries
  • For 7 days
  • Water Temperature
  • Satellite Maps
  • Weather Map
  • Weather Widgets
  • user-avatar
    Login

    Hourly Weather Dragunsk

    Today, 24 May, Friday

    Time Temperature Precipitation Wind Pressure Humidity
    00:00 +16°C° 0 mm 1 mps 742 mmHg 78%
    01:00 +16°C° 0 mm 1 mps 742 mmHg 80%
    02:00 +15°C° 0 mm 0 mps 742 mmHg 80%
    03:00 +15°C° 0 mm 0 mps 742 mmHg 80%
    04:00 +15°C° 0 mm 0 mps 742 mmHg 80%
    05:00 +16°C° 0 mm 1 mps 742 mmHg 81%
    06:00 +19°C° 0 mm 1 mps 742 mmHg 76%
    07:00 +19°C° 0 mm 0 mps 743 mmHg 71%
    08:00 +21°C° 0 mm 0 mps 743 mmHg 66%
    09:00 +22°C° 0.2 mm 0 mps 743 mmHg 60%
    10:00 +25°C° 0.2 mm 1 mps 742 mmHg 55%
    11:00 +27°C° 0.2 mm 1 mps 742 mmHg 49%
    12:00 +27°C° 0 mm 1 mps 742 mmHg 48%
    13:00 +27°C° 0 mm 1 mps 742 mmHg 47%
    14:00 +25°C° 0 mm 0 mps 742 mmHg 46%
    15:00 +27°C° 0 mm 1 mps 742 mmHg 49%
    16:00 +26°C° 0 mm 1 mps 742 mmHg 51%
    17:00 +26°C° 0 mm 1 mps 742 mmHg 54%
    18:00 +25°C° 0 mm 1 mps 742 mmHg 57%
    19:00 +24°C° 0 mm 1 mps 742 mmHg 60%
    20:00 +22°C° 0 mm 1 mps 742 mmHg 63%
    21:00 +21°C° 1 mm 1 mps 742 mmHg 71%
    22:00 +19°C° 1 mm 1 mps 741 mmHg 79%
    23:00 +18°C° 1 mm 1 mps 741 mmHg 87%

    Tomorrow, 25 May, Saturday

    Time Temperature Precipitation Wind Pressure Humidity
    00:00 +17°C° 0.8 mm 2 mps 741 mmHg 89%
    01:00 +17°C° 0.8 mm 2 mps 741 mmHg 90%
    02:00 +17°C° 0.8 mm 3 mps 741 mmHg 92%
    03:00 +17°C° 0 mm 2 mps 741 mmHg 90%
    04:00 +17°C° 0 mm 2 mps 741 mmHg 88%
    05:00 +17°C° 0 mm 2 mps 741 mmHg 86%
    06:00 +18°C° 0.1 mm 2 mps 741 mmHg 83%
    07:00 +20°C° 0.1 mm 2 mps 741 mmHg 79%
    08:00 +21°C° 0.1 mm 2 mps 741 mmHg 75%
    09:00 +23°C° 1.1 mm 2 mps 740 mmHg 72%
    10:00 +23°C° 1.1 mm 2 mps 740 mmHg 68%
    11:00 +24°C° 1.1 mm 2 mps 740 mmHg 65%
    12:00 +24°C° 1.9 mm 2 mps 740 mmHg 67%
    13:00 +23°C° 1.9 mm 2 mps 740 mmHg 69%
    14:00 +23°C° 1.9 mm 2 mps 740 mmHg 70%
    15:00 +23°C° 0.8 mm 2 mps 739 mmHg 73%
    16:00 +21°C° 0.8 mm 3 mps 739 mmHg 75%
    17:00 +21°C° 0.8 mm 3 mps 739 mmHg 78%
    18:00 +20°C° 0.4 mm 3 mps 739 mmHg 82%
    19:00 +19°C° 0.4 mm 3 mps 739 mmHg 86%
    20:00 +17°C° 0.4 mm 3 mps 739 mmHg 90%
    21:00 +17°C° 0.1 mm 3 mps 740 mmHg 91%
    22:00 +16°C° 0.1 mm 3 mps 740 mmHg 92%
    23:00 +14°C° 0.1 mm 3 mps 740 mmHg 93%

    Day after tomorrow, 26 May, Sunday

    Time Temperature Precipitation Wind Pressure Humidity
    00:00 +13°C° 0 mm 3 mps 740 mmHg 93%
    01:00 +13°C° 0 mm 3 mps 740 mmHg 93%
    02:00 +12°C° 0 mm 3 mps 741 mmHg 94%
    03:00 +13°C° 0 mm 2 mps 741 mmHg 94%
    04:00 +13°C° 0 mm 2 mps 741 mmHg 94%
    05:00 +12°C° 0 mm 2 mps 742 mmHg 94%
    06:00 +14°C° 0 mm 2 mps 742 mmHg 89%
    07:00 +14°C° 0 mm 3 mps 742 mmHg 83%
    08:00 +16°C° 0 mm 3 mps 742 mmHg 77%
    09:00 +17°C° 0 mm 3 mps 742 mmHg 70%
    10:00 +18°C° 0 mm 4 mps 742 mmHg 62%
    11:00 +19°C° 0 mm 4 mps 742 mmHg 54%
    12:00 +20°C° 0 mm 4 mps 742 mmHg 53%
    13:00 +20°C° 0 mm 5 mps 742 mmHg 52%
    14:00 +21°C° 0 mm 5 mps 742 mmHg 51%
    15:00 +20°C° 0 mm 5 mps 742 mmHg 53%
    16:00 +20°C° 0 mm 5 mps 742 mmHg 55%
    17:00 +20°C° 0 mm 4 mps 742 mmHg 57%
    18:00 +18°C° 0 mm 4 mps 742 mmHg 63%
    19:00 +17°C° 0 mm 3 mps 742 mmHg 69%
    20:00 +14°C° 0 mm 3 mps 742 mmHg 76%
    21:00 +14°C° 0 mm 3 mps 742 mmHg 78%
    22:00 +13°C° 0 mm 3 mps 742 mmHg 80%
    23:00 +13°C° 0 mm 3 mps 743 mmHg 83%

    27 May, Monday

    Time Temperature Precipitation Wind Pressure Humidity
    00:00 +12°C° 0 mm 3 mps 743 mmHg 84%
    01:00 +12°C° 0 mm 3 mps 743 mmHg 86%
    02:00 +12°C° 0 mm 2 mps 743 mmHg 88%
    03:00 +12°C° 0 mm 2 mps 744 mmHg 89%
    04:00 +12°C° 0 mm 2 mps 744 mmHg 89%
    05:00 +12°C° 0 mm 2 mps 744 mmHg 90%
    06:00 +13°C° 0 mm 3 mps 744 mmHg 83%
    07:00 +16°C° 0 mm 3 mps 744 mmHg 75%
    08:00 +18°C° 0 mm 3 mps 745 mmHg 68%
    09:00 +19°C° 0 mm 4 mps 745 mmHg 64%
    10:00 +20°C° 0 mm 4 mps 745 mmHg 60%
    11:00 +21°C° 0 mm 5 mps 745 mmHg 56%
    12:00 +22°C° 0 mm 5 mps 745 mmHg 55%
    13:00 +22°C° 0 mm 5 mps 745 mmHg 54%
    14:00 +23°C° 0 mm 5 mps 745 mmHg 52%
    15:00 +23°C° 0.1 mm 5 mps 745 mmHg 55%
    16:00 +23°C° 0.1 mm 4 mps 745 mmHg 58%
    17:00 +23°C° 0.1 mm 4 mps 745 mmHg 61%
    18:00 +21°C° 0 mm 3 mps 745 mmHg 66%
    19:00 +20°C° 0 mm 2 mps 745 mmHg 71%
    20:00 +19°C° 0 mm 1 mps 745 mmHg 76%
    21:00 +17°C° 0 mm 2 mps 745 mmHg 80%
    22:00 +17°C° 0 mm 2 mps 745 mmHg 84%
    23:00 +16°C° 0 mm 3 mps 745 mmHg 88%

    28 May, Tuesday

    Time Temperature Precipitation Wind Pressure Humidity
    00:00 +16°C° 0 mm 3 mps 745 mmHg 90%
    01:00 +16°C° 0 mm 3 mps 745 mmHg 93%
    02:00 +16°C° 0 mm 3 mps 745 mmHg 95%
    03:00 +16°C° 0 mm 2 mps 745 mmHg 95%
    04:00 +17°C° 0 mm 2 mps 745 mmHg 94%
    05:00 +17°C° 0 mm 2 mps 745 mmHg 94%
    06:00 +19°C° 0 mm 2 mps 745 mmHg 88%
    07:00 +20°C° 0 mm 3 mps 745 mmHg 83%
    08:00 +22°C° 0 mm 3 mps 745 mmHg 78%
    09:00 +23°C° 0.7 mm 4 mps 745 mmHg 75%
    10:00 +25°C° 0.7 mm 5 mps 745 mmHg 72%
    11:00 +26°C° 0.7 mm 6 mps 745 mmHg 69%
    12:00 +26°C° 0.4 mm 6 mps 745 mmHg 64%
    13:00 +27°C° 0.4 mm 6 mps 745 mmHg 58%
    14:00 +28°C° 0.4 mm 6 mps 745 mmHg 53%
    15:00 +27°C° 0 mm 5 mps 745 mmHg 56%
    16:00 +26°C° 0 mm 5 mps 744 mmHg 59%
    17:00 +26°C° 0 mm 5 mps 744 mmHg 62%
    18:00 +23°C° 0 mm 5 mps 744 mmHg 67%
    19:00 +22°C° 0 mm 4 mps 744 mmHg 72%
    20:00 +20°C° 0 mm 4 mps 744 mmHg 78%
    21:00 +20°C° 0 mm 4 mps 744 mmHg 79%
    22:00 +20°C° 0 mm 5 mps 744 mmHg 80%
    23:00 +20°C° 0 mm 5 mps 744 mmHg 82%

    29 May, Wednesday

    Time Temperature Precipitation Wind Pressure Humidity
    00:00 +20°C° 0 mm 5 mps 744 mmHg 79%
    01:00 +20°C° 0 mm 6 mps 744 mmHg 77%
    02:00 +20°C° 0 mm 6 mps 744 mmHg 75%
    03:00 +19°C° 0 mm 6 mps 744 mmHg 76%
    04:00 +19°C° 0 mm 6 mps 743 mmHg 78%
    05:00 +17°C° 0 mm 5 mps 743 mmHg 79%
    06:00 +19°C° 0.1 mm 6 mps 743 mmHg 77%
    07:00 +20°C° 0.1 mm 7 mps 743 mmHg 75%
    08:00 +21°C° 0.1 mm 7 mps 743 mmHg 73%
    09:00 +22°C° 0.1 mm 7 mps 743 mmHg 70%
    10:00 +24°C° 0.1 mm 7 mps 743 mmHg 67%
    11:00 +26°C° 0.1 mm 7 mps 743 mmHg 65%
    12:00 +27°C° 0 mm 7 mps 743 mmHg 63%
    13:00 +27°C° 0 mm 7 mps 743 mmHg 61%
    14:00 +28°C° 0 mm 7 mps 743 mmHg 60%
    15:00 +27°C° 0.8 mm 6 mps 743 mmHg 65%
    16:00 +27°C° 0.8 mm 5 mps 743 mmHg 71%
    17:00 +26°C° 0.8 mm 4 mps 743 mmHg 76%
    18:00 +25°C° 0.3 mm 4 mps 743 mmHg 79%
    19:00 +22°C° 0.3 mm 4 mps 743 mmHg 82%
    20:00 +21°C° 0.3 mm 3 mps 743 mmHg 84%
    21:00 +20°C° 0 mm 3 mps 743 mmHg 86%
    22:00 +20°C° 0 mm 3 mps 743 mmHg 88%
    23:00 +19°C° 0 mm 3 mps 744 mmHg 90%
    Show more